METEOR 2-12 DEB

Satellite information

Favourite Embed

Satellite Type and Status

DEBRISIN ORBIT

Key statistics

Satellite METEOR 2-12 DEB at a glance.

Uptime

14865

Days in orbit

Revolutions

≈ 14.0

Per day

Orbit

LEO

Low Earth Orbit

Inclination

82.5

Latest

Satellite identification and parameters

Extended collection of information and parameters for METEOR 2-12 DEB.

Object identification

Identified? True

Debris? True

Object name: METEOR 2-12 DEB

International designator: 1985-013F

Object number (NORAD): 59995

Object ID (CCSDS): 59995

Country: COMMONWEALTH OF INDEPENDENT STATES (CIS)

Current information (Y/N): Y

RCS size: SMALL

Orbital parameters

Period: 102.617 minutes

Inclination: 82.5254 deg

SMA: 7260.616 km

Apoapsis: 896.616 km

Periapsis: 868.346 km

RAAN: 116.4618 deg

Eccentricy: 0.00194685

Argument of periapsis: 75.8058 deg

Mean anomaly: 284.5273 deg

Mean motion: 14.03274238 rev/day

Mean motion (dot): 0.00003639 rev/day2

B* drag term: 0.0023199305 1/REarth

Two-line elements (TLE)

Creation date: Oct. 14, 2025, 2:50 a.m.

Reference frame: TEME

Reference center: EARTH

Epoch: Oct. 13, 2025, 6:53 p.m. UTC

TLE line 0: 0 METEOR 2-12 DEB

TLE line 1: 1 59995U 85013F 25286.78743501 .00003639 00000-0 23199-2 0 9999

TLE line 2: 2 59995 82.5254 116.4618 0019468 75.8058 284.5273 14.03274238 73446

Live tracking on map

Real-time ground track for satellite METEOR 2-12 DEB.

In-orbit conjunctions

A list of the most updated potential collisions computed for object METEOR 2-12 DEB.

Target Orbit TCA Probability of collision Miss distance Type
METEOR 2-9 LEO 2025-08-26 16:59:34 0.0001506229 561.0 (m) PAYLOAD
FENGYUN 1C DEB SSO 2025-02-06 23:16:31 0.0001360653 229.0 (m) DEBRIS
DELTA 1 DEB SSO 2024-09-24 06:22:58 0.0001485241 242.0 (m) DEBRIS

Associated space launch

Film-return reconnaissance satellite

METEOR 2-12 DEB was lifted into orbit during the mission ‘Soyuz U | Zenit-8 11’, on board a Soyuz U space rocket.

The launch took place on Feb. 6, 1985, 11 a.m. from 16/2.

For more information about the launch, click the button.

Launch to space Soyuz U | Zenit-8 11
Soyuz U | Zenit-8 11

Agency: N/A

Status: Launch Successful

Launch date: Feb. 6, 1985, 11 a.m. UTC

Rocket: Soyuz U

Launch pad: 16/2

Location: Plesetsk Cosmodrome, Russian Federation

...

Latest news about this satellite

There are no fresh news available about this satellite. Check back as we update our databases every day.


Newsletter sign-up

Weekly statistics, charts and insights to help you stay on top of the space industry.